Flag for Germany Weather past 2 weeks in Buxtehude, Lower Saxony, Germany

Now
57 °F

Broken clouds.


Feels Like: 54 °F
Forecast: 55 / 62 °F
Wind: 16 mph from Southwest

Location: Hamburg-Finkenwerder

Current Time: Jul 28, 2015 at 8:59:12 AM

Latest Report: Jul 28, 2015 at 8:20 AM


Visibility: N/A

Pressure: 29.50 "Hg

Humidity: 100%

Dew point: 57 °F

Location of BuxtehudeLocation

Historic Weather in Buxtehude — Graph

°F

Buxtehude temperature yesterday

Maximum temperature yesterday: 68 °F (at 3:50 PM)
Minimum temperature yesterday: 55 °F (at 5:50 AM)
Average temperature yesterday: 61 °F

Past Weeks' High & Low Weather Summary

 TemperatureHumidityPressure
High88 °F (Jul 17, 4:20 PM)100% (Jul 13, 7:20 AM)30.09 "Hg (Jul 13, 7:20 AM)
Low54 °F (Jul 20, 5:50 AM)41% (Jul 24, 4:20 PM)29.45 "Hg (Jul 27, 2:50 PM)
Average67 °F74%29.89 "Hg
* Reported Jul 13 7:20 AM — Jul 28 7:50 AM, Buxtehude, Weather by CustomWeather, © 2015

Note: Actual official high and low records may vary slightly from our data, if they occured in-between our weather recording intervals... More about our weather records

Advertising

Buxtehude weather history for previous 24 hours

 ConditionsComfort  
Time TempWeatherWind HumidityBarometerVisibility
7:50 AM
Tue, Jul 28
57 °FSprinkles. Partly sunny.15 mph100%29.47 "Hg6 mi
7:20 AM57 °FSprinkles. Broken clouds.14 mph100%29.47 "Hg4 mi
7:00 AM57 °FSprinkles. Broken clouds.16 mph100%29.47 "Hg4 mi
6:20 AM57 °FSprinkles. Partly cloudy.14 mph100%29.47 "HgN/A
9:20 PM
Mon, Jul 27
63 °FPartly sunny.14 mph88%29.47 "HgN/A
8:50 PM63 °FBroken clouds.13 mph88%29.47 "HgN/A
8:20 PM63 °FBroken clouds.8 mph94%29.47 "HgN/A
7:50 PM63 °FPartly sunny.9 mph94%29.47 "HgN/A
7:20 PM64 °FPartly sunny.15 mph83%29.47 "HgN/A
6:50 PM64 °FScattered showers. Broken clouds.20 mph83%29.45 "HgN/A
6:20 PM63 °FScattered showers. Scattered clouds.8 mph100%29.45 "HgN/A
5:50 PM63 °FScattered showers. Broken clouds.9 mph94%29.45 "HgN/A
5:20 PM63 °FSprinkles. Broken clouds.13 mph94%29.45 "HgN/A
4:50 PM66 °FScattered showers. Broken clouds.10 mph83%29.45 "HgN/A
4:20 PM64 °FSprinkles. Broken clouds.13 mph83%29.45 "HgN/A
3:50 PM68 °FScattered showers. Broken clouds.14 mph73%29.45 "HgN/A
3:20 PM66 °FScattered clouds.12 mph88%29.45 "HgN/A
2:50 PM64 °FScattered showers. Broken clouds.14 mph83%29.45 "HgN/A
2:20 PM66 °FBroken clouds.13 mph78%29.47 "HgN/A
1:50 PM64 °FBroken clouds.12 mph83%29.47 "HgN/A
1:20 PM61 °FBroken clouds.10 mph94%29.47 "HgN/A
12:50 PM63 °FPartly sunny.13 mph83%29.47 "HgN/A
12:20 PM63 °FPartly sunny.13 mph83%29.47 "HgN/A
11:50 AM61 °FPartly sunny.13 mph88%29.50 "HgN/A
11:20 AM59 °FPartly sunny.7 mph94%29.50 "HgN/A
10:50 AM57 °FPartly sunny.8 mph100%29.50 "HgN/A
10:20 AM57 °FPartly sunny.7 mph100%29.50 "HgN/A
9:50 AM57 °FPartly sunny.8 mph100%29.50 "HgN/A
9:20 AM57 °FDrizzle. Partly sunny.7 mph94%29.50 "Hg2 mi
8:50 AM57 °FPartly sunny.9 mph88%29.50 "HgN/A
8:20 AM57 °FBroken clouds.7 mph88%29.50 "HgN/A
Weather by CustomWeather, © 2015

See weather overviewHow to use our weather pages